This is the latest recevied weather packets stored in our database for station/object NK7E. If no packets are shown the sender has not sent any weather packets the latest 10 day(s).
| Time | Temp. | Humidity | Pressure | Rain* | Wind** | Luminosity | Snow |
|---|---|---|---|---|---|---|---|
| 1788146416 | 88° F | 40% | 760.3 mmHg | 0 in | - | 0 W/m² | - |
| 1788145816 | 89° F | 40% | 760.2 mmHg | 0 in | - | 0 W/m² | - |
| 1788145216 | 89° F | 39% | 760 mmHg | 0 in | - | 0 W/m² | - |
| 1788144616 | 90° F | 40% | 759.9 mmHg | 0 in | - | 0 W/m² | - |
| 1788144016 | 92° F | 38% | 759.6 mmHg | 0 in | - | 0 W/m² | - |
| 1788143416 | 92° F | 36% | 759.3 mmHg | 0 in | - | 0 W/m² | - |
| 1788142816 | 93° F | 36% | 759.1 mmHg | 0 in | - | 0 W/m² | - |
| 1788142216 | 93° F | 35% | 759.1 mmHg | 0 in | - | 0 W/m² | - |
| 1788141616 | 93° F | 35% | 759.1 mmHg | 0 in | - | 0 W/m² | - |
| 1788141016 | 93° F | 34% | 759 mmHg | 0 in | - | 0 W/m² | - |
| 1788140416 | 93° F | 33% | 758.9 mmHg | 0 in | - | 6 W/m² | - |
| 1788139816 | 94° F | 33% | 758.8 mmHg | 0 in | - | 14 W/m² | - |
| 1788139216 | 94° F | 32% | 758.8 mmHg | 0 in | - | 19 W/m² | - |
| 1788138616 | 94° F | 32% | 758.8 mmHg | 0 in | - | 18 W/m² | - |
| 1788138016 | 95° F | 32% | 758.7 mmHg | 0 in | - | 22 W/m² | - |
| 1788137416 | 96° F | 31% | 758.7 mmHg | 0 in | - | 57 W/m² | - |
| 1788136816 | 96° F | 31% | 758.8 mmHg | 0 in | - | 190 W/m² | - |
| 1788136216 | 97° F | 31% | 758.8 mmHg | 0 in | - | 176 W/m² | - |
| 1788135616 | 97° F | 31% | 758.8 mmHg | 0 in | - | 251 W/m² | - |
| 1788135016 | 97° F | 31% | 758.8 mmHg | 0 in | - | 276 W/m² | - |
| 1788134416 | 97° F | 30% | 758.8 mmHg | 0 in | - | 341 W/m² | - |
| 1788133816 | 97° F | 31% | 758.8 mmHg | 0 in | - | 388 W/m² | - |
| 1788133216 | 97° F | 31% | 758.8 mmHg | 0 in | - | 104 W/m² | - |
| 1788132616 | 98° F | 30% | 758.9 mmHg | 0 in | - | 246 W/m² | - |
| 1788132016 | 99° F | 29% | 759 mmHg | 0 in | - | 498 W/m² | - |
* Rain latest hour (hover to see other rain measurements)
** Current wind speed in m/s (hover to see current wind gust speed)